Regional Weather Roundup
Issued by NWS Sioux Falls, SD

Home | Current Version | Previous Version | Text Only | Print | Product List | Glossary Off
Versions: 1 2 3 4 5 6 7 8 9 10 11 12 13 14 15 16 17 18 19 20 21 22 23 24 25 26 27 28 29 30 31 32 33 34 35 36 37 38 39 40 41 42 43 44 45 46 47 48 49 50

000
ASUS43 KFSD 240310
RWRFSD

WEATHER ROUNDUP FOR SE SOUTH DAKOTA/SW MINNESOTA/NW IOWA
NATIONAL WEATHER SERVICE SIOUX FALLS SD
1000 PM CDT TUE MAY 23 2017

NOTE: "FAIR" INDICATES FEW OR NO CLOUDS BELOW 12,000 FEET WITH NO
SIGNIFICANT WEATHER AND OR OBSTRUCTIONS TO VISIBILITY.


SDZ038>040-050-052>070-240400-
SOUTHEAST SOUTH DAKOTA

CITY           SKY/WX    TMP DP  RH WIND       PRES   REMARKS
BROOKINGS      CLOUDY    49  45  86 N12       29.90S
CHAMBERLAIN    CLOUDY    54  44  70 N7        29.97S
HURON          PTCLDY    47  43  86 N7        29.94S
MADISON        CLOUDY    48  48 100 N10       29.91R
MITCHELL       PTCLDY    50  45  83 N10       29.93F
SIOUX FALLS    MOCLDY    51  47  86 N13       29.88R
WINNER         CLOUDY    52  42  69 N7        29.98S
YANKTON        MOCLDY    51  47  86 NW14      29.90S
$$

MNZ071-072-080-081-089-090-097-098-240400-
SOUTHWEST MINNESOTA

CITY           SKY/WX    TMP DP  RH WIND       PRES   REMARKS
FAIRMONT       LGT RAIN  51  48  89 N8        29.83R
JACKSON        CLOUDY    50  46  87 CALM      29.84R
LUVERNE        PTCLDY    50  43  76 N8        29.88R
MARSHALL       MOCLDY    52  48  86 NW10      29.87S
MONTEVIDEO     CLEAR     52  48  87 NE10      29.88R
PIPESTONE      CLOUDY    50  43  76 N7        29.88R
REDWOOD FALLS  CLOUDY    53  45  74 N6        29.85R
TRACY          MOCLDY    51  47  87 NW7       29.87R
WINDOM         CLOUDY    48  46  93 NW7       29.84S
WORTHINGTON    PTCLDY    48  45  89 N7        29.86R
$$

IAZ001>003-012>014-020>022-031-032-NEZ013-014-SDZ071-240400-
NORTHWEST IOWA

CITY           SKY/WX    TMP DP  RH WIND       PRES   REMARKS
CHEROKEE       PTCLDY    47  47  99 CALM      29.84R
DENISON        MOCLDY    50  46  87 CALM      29.83S
ESTHERVILLE    CLOUDY    50  49  96 N7        29.82R
LE MARS        CLOUDY    50  48  93 N8        29.86S
ORANGE CITY    CLOUDY    52  46  82 N8        29.85S
SHELDON        CLOUDY    50  48  93 NW10        N/A
SIOUX CITY     CLOUDY    50  48  93 N8        29.86R
SPENCER        CLOUDY    52  47  83 N9        29.82S
STORM LAKE     CLOUDY    50  48  93 N7        29.82S
$$

ABBREVIATIONS USED IN REMARKS
   TC - TEMPERATURE IN CELSIUS
  WCI - WIND CHILL INDEX
   HX - HEAT INDEX
  VSB - VISIBILITY





USA.gov is the U.S. government's official web portal to all federal, state and local government web resources and services.